User: anonymous   Login
Location: Unspecified
(0.0000°N, 0.0000°E)
Time: 08:57:12
(UTC+00:00)
Language:

Terriers - Orbit

View from above orbital plane
View from above orbital plane
View from above satellite
View from above satellite

Ground track
Ground track

The orbit data is extracted from the following two-line orbital elements,

1 25735U 99026A   17204.89101615 +.00001485 +00000-0 +32846-4 0  9998
2 25735 097.1851 010.2835 0003260 224.6411 135.4576 15.45432299011901
Epoch (UTC): 23 July 2017 21:23:03
Eccentricity: 0.0003260
inclination: 97.1851°
perigee height: 428 km
apogee height: 432 km
right ascension of ascending node: 10.2835°
argument of perigee: 224.6411°
revolutions per day: 15.45432299
mean anomaly at epoch: 135.4576°
orbit number at epoch: 1190

The dashed part of the orbit path shows where the satellite is in the earth's shadow,  

DLR